Preview of NWS' New Version of Forecast
This preview is not operational and should not be used for support decisions.

Regional Weather Roundup (RWR)

Issued by National Weather Service (NWS)

                            
000
ASUS43 KMKX 221720
RWRWI 

WISCONSIN REGIONAL WEATHER ROUNDUP
NATIONAL WEATHER SERVICE MILWAUKEE/SULLIVAN WI
1200 PM CDT MON APR 22 2019

NOTE: "FAIR" INDICATES FEW OR NO CLOUDS BELOW 12,000 FEET WITH NO
SIGNIFICANT WEATHER AND/OR OBSTRUCTIONS TO VISIBILITY.

WIZ001-002-006>008-014>016-023>028-221800-
NORTHWEST WISCONSIN
  
CITY           SKY/WX    TMP DP  RH WIND       PRES   REMARKS
SUPERIOR ARPT  LGT RAIN  36  34  94 NE13G23   30.15S WCI  27          
ASHLAND        RAIN      36  36 100 NE15      30.15F FOG     WCI  27  
HAYWARD        RAIN      41  39  93 NE20G29   30.03F FOG              
SIREN          RAIN      42  41  97 NE8G18    30.05R                  
CUMBERLAND     HVY RAIN  41  37  87 NE3       30.05R                  
RICE LAKE      LGT RAIN  44  35  71 N13       30.02R                  
CHETEK         CLOUDY    47  41  79 NE8       30.00R                  
LADYSMITH      CLOUDY    46  41  82 NE13G21   30.02S                  
EAU CLAIRE     CLOUDY    53  40  61 N9        29.96R                  
MENOMONIE      CLOUDY    47  38  71 N13       29.97F                  
NEW RICHMOND   LGT RAIN  44  42  94 NE20      29.96F                  
OSCEOLA        CLOUDY    44  43  94 N8        30.05S                  
$$
 
WIZ003>005-009-010-017-018-221800-
NORTH CENTRAL WISCONSIN
  
CITY           SKY/WX    TMP DP  RH WIND       PRES   REMARKS
MANITOWISH WTR CLOUDY    41  41 100 N6        30.06R                  
ARBOR VITAE    CLOUDY    46  43  90 NE8       30.03R                  
WOODRUFF       CLOUDY    46  43  90 NE8       30.03R                  
RHINELANDER    FAIR      55  40  56 E9        30.00F                  
EAGLE RIVER    CLOUDY    47  43  86 E9        30.02F                  
LAND O LAKES   CLOUDY    44  41  89 NE10      30.06R                  
PHILLIPS       CLOUDY    45  42  91 NE14G24   30.03R                  
TOMAHAWK       PTSUNNY   55  40  59 NE5       30.00R                  
MEDFORD        LGT RAIN  53  40  62 NE8       29.97R                  
MERRILL        FAIR      58  43  56 NE9       29.97S                  
$$
 
WIZ029-030-035-036-043>047-221800-
CENTRAL WISCONSIN
  
CITY           SKY/WX    TMP DP  RH WIND       PRES   REMARKS
WAUSAU           N/A     59  39  47 E8        29.94                   
MOSINEE        PTSUNNY   61  39  44 E5        29.96S                  
MARSHFIELD     CLOUDY    56  42  59 E7        29.94R                  
STEVENS POINT  FAIR      58  40  52 SE9       29.96R                  
WAUPACA        FAIR      61  42  49 N6        29.95F                  
WAUTOMA        FAIR      64  46  52 E8        29.93F                  
WISC RAPIDS    FAIR      62  40  44 VRB6      29.95R                  
CAMP DOUGLAS   PTSUNNY   68  48  49 N6        29.90F                  
$$
 
WIZ011>013-019>022-031-037>040-048>050-221800-
NORTHEAST WISCONSIN
  
CITY           SKY/WX    TMP DP  RH WIND       PRES   REMARKS
ANTIGO         FAIR      58  42  55 E12       29.97F                  
SHAWANO        FAIR      58  42  55 NE8       29.97S                  
OCONTO         FAIR      53  40  61 NE6       29.99R                  
STURGEON BAY   FAIR      49  40  71 N13       30.00F                  
GREEN BAY      FAIR      54  43  66 NE15      29.97F                  
MANITOWOC      FAIR      49  39  68 SE7       29.98F                  
APPLETON       PTSUNNY   57  37  47 NE9       29.93F                  
CLINTONVILLE   FAIR      59  39  47 E10       29.94F                  
OSHKOSH        FAIR      58  44  60 NE7       29.95R                  
$$
 
WIZ032>034-041-042-053>061-221800-
SOUTHWEST WISCONSIN
  
CITY           SKY/WX    TMP DP  RH WIND       PRES   REMARKS
LA CROSSE      LGT RAIN  65  52  62 E3        29.87F                  
SPARTA         PTSUNNY   70  52  51 SW5       29.90F                  
VIROQUA        PTSUNNY   61  57  87 SE7       29.91F                  
BOSCOBEL       LGT RAIN  63  59  87 W3        29.92R                  
PRAIRIE DU CHI FAIR      71  54  54 SE6       29.89F                  
PLATTEVILLE    FAIR      67  61  79 S10       29.94R                  
$$

WIZ056-057-062-063-064-067-068-221800-
SOUTH CENTRAL WISCONSIN
  
CITY           SKY/WX    TMP DP  RH WIND       PRES   REMARKS
REEDSBURG      CLOUDY    69  51  53 SW10      29.93R                  
BARABOO/DELLS  LGT RAIN  68  51  53 SW12      29.94R                  
LONE ROCK      LGT RAIN  68  54  60 S6        29.91S                  
MINERAL POINT  PTSUNNY   63  63 100 SW7       29.93R                  
MADISON        PTSUNNY   71  49  45 S17G23    29.93S                  
MIDDLETON      FAIR      74  50  43 S16       29.93F                  
WATERTOWN      FAIR      71  51  48 S12G18    29.94S                  
MONROE         FAIR      72  51  47 MISG      29.94F                  
JANESVILLE     PTSUNNY   75  50  41 S17       29.95F                  
$$
 
WIZ051-052-058>065-066-070>072-221800-
SOUTHEAST WISCONSIN
  
CITY           SKY/WX    TMP DP  RH WIND       PRES   REMARKS
MILWAUKEE      PTSUNNY   66  46  48 SE9       29.97R                  
WAUKESHA       SUNNY     70  46  43 S12       29.98S                  
MILWAUKEE/TIMM SUNNY     70  43  37 S12       29.97S                  
RACINE         FAIR      57  42  57 S9        30.00S                  
KENOSHA        FAIR      71  50  47 S12       29.98S                  
FOND DU LAC    FAIR      62  47  57 NE5       29.95R                  
SHEBOYGAN      FAIR      59  43  55 S7        29.96S                  
WEST BEND      FAIR      72  46  40 S15       29.96R                  
JUNEAU         FAIR      70  50  49 S16       29.94F                  
$$

LSZ147-162-221800-
LAKE SUPERIOR
  
STATION/POSITION TIME  TEMP    WIND        PRES    WAVE
                       AIR SEA DIR/SP/G            HT/PER
                 (UTC) (F)     (DEG/KT/KT) (MB)    (FT/S)
$$
 
LMZ867-665-643>646-221800-
LAKE MICHIGAN
  
STATION/POSITION TIME  TEMP    WIND        PRES    WAVE
                       AIR SEA DIR/SP/G            HT/PER
                 (UTC) (F)     (DEG/KT/KT) (MB)    (FT/S)
NORTHPORT PIER   1640   40      90/  6/  9 1016.6R
KEWAUNEE LAKESHO 1654   45     110/  5/  7 1014.7F
SHEBOYGAN LAKESH 1700   44     170/ 15/ 17 1015.1F
MILWAUKEE LAKESH 1700   45                   N/A
KENOSHA   LAKESH 1700   49     180/  8/ 13 1015.6
$$

TC  - TEMPERATURE IN CELSIUS
VSB - VISIBILITY IN STATUTE MILES
WCI - WIND CHILL INDEX
HX  - HEAT INDEX